Back to catalog

TITAN 3C TRANSTAGE DEB

AliveMEO
NORAD 38705·DEBRIS·🇺🇸 United States

Launched Sep 26, 1968 from Cape Canaveral Space Force Station

Loading…

Next Passes (next 24 hours)

TLE

FreshSource: Space-Track

Epoch: Sep 14, 2026, 06:06 UTC

1 38705U 68081AF  26257.25434358 -.00000069  00000-0  00000-0 0  9998
2 38705   3.3909  61.0747 0286696   1.6042 358.8052  1.02088360 75971

Track TITAN 3C TRANSTAGE DEB in real time with AllMySat

Download on the App Store